Regional Weather Roundup
Issued by NWS Sioux Falls, SD

Home | Current Version | Previous Version | Graphics & Text | Print | Product List | Glossary On
Versions: 1 2 3 4 5 6 7 8 9 10 11 12 13 14 15 16 17 18 19 20 21 22 23 24 25 26 27 28 29 30 31 32 33 34 35 36 37 38 39 40 41 42 43 44 45 46 47 48 49 50
000
ASUS43 KFSD 050010
RWRFSD

WEATHER ROUNDUP FOR SE SOUTH DAKOTA/SW MINNESOTA/NW IOWA
NATIONAL WEATHER SERVICE SIOUX FALLS SD
700 PM CDT FRI SEP 04 2015

NOTE: "FAIR" INDICATES FEW OR NO CLOUDS BELOW 12,000 FEET WITH NO
SIGNIFICANT WEATHER AND OR OBSTRUCTIONS TO VISIBILITY.


SDZ038>040-050-052>070-050100-
SOUTHEAST SOUTH DAKOTA

CITY           SKY/WX    TMP DP  RH WIND       PRES   REMARKS
BROOKINGS      FAIR      79  70  73 SE17      29.86R
CHAMBERLAIN    CLOUDY    83  70  64 SE7       29.75S
6HR MIN TEMP:  82; 6HR MAX TEMP:  90;

HURON          PTSUNNY   83  71  67 SE13G22   29.76R
6HR MIN TEMP:  83; 6HR MAX TEMP:  89;

MADISON        FAIR      77  75  94 SE17G23   29.83F
MITCHELL       MOSUNNY   86  73  65 SE12      29.76R
6HR MIN TEMP:  85; 6HR MAX TEMP:  92;

SIOUX FALLS    MOCLDY    82  71  69 SE17G26   29.84S
6HR MIN TEMP:  73; 6HR MAX TEMP:  83; 6HR PCP:  0.01;

WINNER         FAIR      88  65  46 SE5       29.76R
YANKTON        FAIR      84  72  65 SE14      29.78S
$$

MNZ071-072-080-081-089-090-097-098-050100-
SOUTHWEST MINNESOTA

CITY           SKY/WX    TMP DP  RH WIND       PRES   REMARKS
FAIRMONT       FAIR      77  70  78 SE9       29.92F
JACKSON        MOCLDY    79  73  83 SE7       29.93S
LUVERNE        FAIR      79  72  78 SE8       29.87S
MARSHALL       MOCLDY    77  68  73 S12       29.86F
6HR MIN TEMP:  73; 6HR MAX TEMP:  86; 6HR PCP:  0.07;

MONTEVIDEO     FAIR      79  70  73 S9        29.86F
PIPESTONE      FAIR      79  70  73 S13G20    29.88R
REDWOOD FALLS  LGT RAIN  77  71  82 S12       29.86F
TRACY          CLOUDY    78  72  82 S9        29.88S
WINDOM         FAIR      79  72  78 SE7       29.91S
WORTHINGTON    MOCLDY    79  70  73 SE10      29.90S
$$

IAZ001>003-012>014-020>022-031-032-NEZ013-014-SDZ071-050100-
NORTHWEST IOWA

CITY           SKY/WX    TMP DP  RH WIND       PRES   REMARKS
CHEROKEE       FAIR      80  74  81 SE5       29.89S
DENISON        FAIR      81  72  74 SE12      29.87F
ESTHERVILLE    FAIR      79  74  84 SE9       29.91F
LE MARS        FAIR      82  73  74 SE10G18   29.87R
ORANGE CITY    FAIR      81  75  83 SE6       29.88S
SHELDON        FAIR      79  73  83 SE12G17   29.87F
SIOUX CITY     FAIR      84  73  69 SE10      29.84R
6HR MIN TEMP:  79; 6HR MAX TEMP:  87; 6HR PCP:  0.01;

SPENCER        FAIR      81  73  76 SE9       29.91S HAZE
6HR MIN TEMP:  80; 6HR MAX TEMP:  84; 6HR PCP: TRACE;

STORM LAKE     FAIR      81  72  74 SE8       29.92R
$$

ABBREVIATIONS USED IN REMARKS
   TC - TEMPERATURE IN CELSIUS
  WCI - WIND CHILL INDEX
   HX - HEAT INDEX
  VSB - VISIBILITY



USA.gov is the U.S. government's official web portal to all federal, state and local government web resources and services.